Location: Unspecified
(0.0000°N, 0.0000°E)
Time: 12:57:25
(UTC+00:00)

Vanguard 3 - Pass Details

Date: 13 December 2017
Orbit: 508 x 3264 km, 33.3° (Epoch: 21 July)

Event Time Altitude Azimuth Distance (km) Brightness Sun altitude
Rises 01:00:24 0° 248° (WSW) 6,298 11.6 -61.8°
Reaches altitude 10° 01:06:23 10° 232° (SW) 5,691 11.4 -60.9°
Maximum altitude 01:18:16 20° 191° (S) 5,327 11.3 -59.1°
Drops below altitude 10° 01:31:05 10° 150° (SSE) 6,119 11.9 -57.0°
Sets 01:38:03 0° 134° (SE) 6,891 12.4 -55.7°
